Total_Precipitation_Accumulation
0.00 0.00 0.01 0.01 0.01 0.02 0.03 0.07 0.15 0.17 0.15 0.22 0.35 0.60 0.72 0.66 0.67 0.69 0.77 0.97 0.98 1.02 1.19 1.47 1.87 2.19 2.54 3.14 3.64 3.76 3.47 2.72 2.20 1.85 1.66 1.45 1.26 1.10 0.97 0.88 0.78 0.69 0.69 0.64
0.01 0.02 0.02 0.01 0.01 0.02 0.05 0.09 0.16 0.16 0.12 0.14 0.33 0.63 0.71 0.73 0.76 0.68 0.71 0.80 0.71 0.78 1.04 1.48 2.06 2.58 2.83 3.01 3.12 2.97 2.55 1.92 1.49 1.20 1.02 0.82 0.68 0.61 0.57 0.52 0.52 0.53 0.54 0.54
0.02 0.03 0.02 0.01 0.02 0.04 0.07 0.08 0.13 0.17 0.12 0.14 0.33 0.71 0.82 0.77 0.73 0.66 0.54 0.55 0.64 0.78 1.25 1.93 2.59 2.97 2.92 2.70 2.26 1.77 1.38 1.05 0.93 0.77 0.62 0.47 0.38 0.32 0.30 0.29 0.31 0.33 0.33 0.33
0.02 0.03 0.02 0.02 0.04 0.05 0.09 0.06 0.05 0.06 0.11 0.31 0.43 0.82 0.85 0.82 0.77 0.54 0.50 0.57 0.68 0.89 1.38 2.05 2.52 2.48 2.34 2.03 1.53 1.18 0.95 0.74 0.61 0.52 0.48 0.40 0.31 0.29 0.27 0.24 0.25 0.24 0.23 0.23
0.02 0.03 0.03 0.03 0.04 0.05 0.05 0.04 0.04 0.08 0.17 0.33 0.45 0.69 0.84 0.80 0.82 0.44 0.37 0.46 0.58 0.78 1.01 1.21 1.36 1.31 1.16 1.00 1.00 0.95 0.85 0.77 0.64 0.54 0.50 0.43 0.31 0.27 0.27 0.26 0.25 0.26 0.26 0.24
0.03 0.03 0.03 0.03 0.03 0.04 0.04 0.06 0.12 0.21 0.36 0.68 0.65 0.73 0.92 0.86 0.74 0.36 0.20 0.27 0.46 0.57 0.57 0.56 0.53 0.52 0.51 0.50 0.58 0.62 0.58 0.65 0.65 0.58 0.49 0.45 0.38 0.31 0.26 0.24 0.23 0.22 0.23 0.25
0.09 0.07 0.05 0.05 0.05 0.06 0.05 0.09 0.31 0.61 0.91 0.95 0.53 0.59 0.92 0.83 0.52 0.25 0.12 0.11 0.19 0.31 0.39 0.43 0.44 0.46 0.47 0.38 0.37 0.42 0.40 0.40 0.42 0.40 0.36 0.36 0.38 0.32 0.26 0.21 0.17 0.18 0.18 0.20
0.15 0.14 0.09 0.06 0.06 0.06 0.06 0.07 0.17 0.32 0.38 0.47 0.50 0.94 1.06 0.54 0.28 0.14 0.08 0.05 0.10 0.17 0.22 0.26 0.28 0.31 0.31 0.25 0.24 0.27 0.30 0.29 0.25 0.22 0.21 0.22 0.25 0.24 0.22 0.25 0.19 0.18 0.19 0.20
0.06 0.08 0.07 0.06 0.07 0.07 0.06 0.04 0.06 0.08 0.14 0.35 0.64 0.90 0.73 0.33 0.21 0.09 0.04 0.04 0.05 0.09 0.10 0.11 0.12 0.15 0.16 0.17 0.19 0.20 0.22 0.22 0.18 0.16 0.14 0.14 0.17 0.18 0.19 0.21 0.19 0.18 0.22 0.21
0.04 0.03 0.05 0.05 0.06 0.07 0.06 0.06 0.06 0.08 0.15 0.31 0.54 0.84 0.80 0.39 0.20 0.08 0.06 0.06 0.05 0.05 0.06 0.06 0.06 0.08 0.08 0.10 0.14 0.15 0.15 0.17 0.15 0.13 0.10 0.07 0.09 0.12 0.14 0.13 0.14 0.15 0.17 0.19
0.03 0.02 0.05 0.05 0.06 0.08 0.08 0.08 0.09 0.09 0.09 0.16 0.37 0.53 0.35 0.24 0.16 0.10 0.07 0.05 0.03 0.04 0.05 0.05 0.03 0.03 0.04 0.07 0.09 0.10 0.10 0.13 0.13 0.12 0.09 0.07 0.07 0.08 0.10 0.13 0.14 0.16 0.14 0.13
0.03 0.03 0.04 0.07 0.09 0.10 0.11 0.11 0.11 0.12 0.11 0.10 0.19 0.26 0.19 0.19 0.18 0.12 0.08 0.06 0.02 0.03 0.02 0.01 0.01 0.01 0.03 0.04 0.06 0.08 0.08 0.12 0.11 0.10 0.09 0.08 0.06 0.07 0.08 0.10 0.12 0.13 0.13 0.14
0.03 0.03 0.05 0.14 0.21 0.17 0.11 0.10 0.10 0.11 0.09 0.09 0.20 0.28 0.18 0.12 0.15 0.10 0.11 0.07 0.03 0.02 0.01 0.01 0.02 0.02 0.04 0.05 0.06 0.07 0.08 0.09 0.08 0.07 0.07 0.07 0.06 0.05 0.06 0.08 0.09 0.10 0.12 0.14
0.04 0.03 0.05 0.14 0.23 0.25 0.17 0.11 0.10 0.08 0.07 0.07 0.12 0.25 0.21 0.18 0.16 0.13 0.13 0.11 0.07 0.04 0.02 0.02 0.03 0.04 0.05 0.07 0.07 0.06 0.06 0.06 0.06 0.06 0.08 0.08 0.07 0.07 0.07 0.07 0.08 0.09 0.12 0.14
0.04 0.03 0.04 0.05 0.08 0.12 0.14 0.13 0.10 0.07 0.05 0.06 0.10 0.16 0.18 0.25 0.17 0.12 0.13 0.11 0.09 0.07 0.04 0.05 0.06 0.06 0.07 0.11 0.11 0.11 0.10 0.11 0.13 0.15 0.17 0.17 0.16 0.17 0.17 0.16 0.15 0.16 0.17 0.16
0.07 0.05 0.04 0.04 0.07 0.09 0.11 0.14 0.09 0.06 0.05 0.04 0.07 0.15 0.19 0.20 0.16 0.14 0.14 0.13 0.11 0.10 0.10 0.13 0.13 0.13 0.14 0.16 0.18 0.20 0.20 0.22 0.26 0.29 0.32 0.34 0.41 0.41 0.36 0.33 0.31 0.30 0.29 0.29
0.12 0.09 0.07 0.06 0.10 0.10 0.13 0.12 0.10 0.11 0.09 0.08 0.11 0.18 0.18 0.19 0.22 0.31 0.30 0.25 0.24 0.22 0.21 0.20 0.22 0.21 0.19 0.18 0.20 0.23 0.27 0.34 0.41 0.47 0.51 0.56 0.62 0.66 0.64 0.60 0.53 0.49 0.49 0.49
0.18 0.16 0.12 0.10 0.13 0.17 0.14 0.14 0.12 0.13 0.14 0.13 0.17 0.23 0.29 0.38 0.37 0.42 0.42 0.34 0.24 0.19 0.19 0.19 0.24 0.24 0.22 0.25 0.30 0.32 0.34 0.42 0.52 0.62 0.72 0.82 0.83 0.84 0.83 0.81 0.72 0.69 0.73 0.71
0.18 0.20 0.19 0.17 0.18 0.17 0.17 0.20 0.21 0.22 0.25 0.25 0.33 0.39 0.46 0.48 0.36 0.29 0.23 0.16 0.12 0.11 0.13 0.16 0.21 0.26 0.31 0.29 0.32 0.37 0.35 0.42 0.57 0.67 0.70 0.73 0.80 0.90 0.96 0.92 0.89 0.91 0.88 0.77
0.24 0.22 0.28 0.25 0.27 0.28 0.27 0.32 0.29 0.29 0.49 0.43 0.38 0.39 0.42 0.39 0.43 0.36 0.22 0.16 0.13 0.12 0.12 0.13 0.14 0.17 0.23 0.31 0.33 0.32 0.36 0.45 0.60 0.69 0.69 0.67 0.74 0.88 0.99 1.01 0.98 0.95 0.94 0.89
0.37 0.39 0.35 0.35 0.37 0.32 0.32 0.28 0.25 0.40 0.52 0.44 0.43 0.44 0.43 0.46 0.45 0.38 0.24 0.15 0.13 0.12 0.11 0.11 0.11 0.11 0.15 0.20 0.25 0.32 0.40 0.46 0.50 0.57 0.65 0.69 0.75 0.83 0.87 0.94 0.97 0.99 0.98 0.98
0.43 0.44 0.44 0.44 0.55 0.52 0.40 0.32 0.39 0.49 0.43 0.44 0.43 0.38 0.33 0.31 0.25 0.20 0.16 0.14 0.12 0.11 0.11 0.10 0.11 0.12 0.15 0.18 0.21 0.27 0.31 0.34 0.39 0.42 0.45 0.49 0.58 0.69 0.73 0.82 0.86 0.92 0.93 0.92
0.52 0.49 0.49 0.56 0.62 0.49 0.42 0.42 0.44 0.40 0.33 0.32 0.29 0.25 0.25 0.24 0.21 0.16 0.15 0.14 0.12 0.10 0.09 0.08 0.09 0.11 0.15 0.19 0.24 0.31 0.34 0.36 0.38 0.39 0.39 0.42 0.49 0.65 0.80 0.84 0.82 0.85 0.86 0.84
0.55 0.42 0.46 0.60 0.66 0.61 0.54 0.48 0.40 0.36 0.30 0.23 0.21 0.23 0.21 0.18 0.16 0.17 0.16 0.12 0.09 0.07 0.06 0.06 0.08 0.09 0.11 0.13 0.17 0.23 0.28 0.34 0.40 0.43 0.43 0.46 0.52 0.65 0.88 1.00 0.93 0.86 0.85 0.82
0.40 0.39 0.43 0.58 0.69 0.58 0.50 0.43 0.34 0.28 0.24 0.22 0.20 0.17 0.15 0.13 0.14 0.15 0.13 0.08 0.05 0.04 0.05 0.06 0.08 0.11 0.11 0.12 0.16 0.21 0.28 0.36 0.40 0.40 0.38 0.39 0.46 0.60 0.82 0.99 0.97 0.83 0.80 0.77
0.29 0.34 0.34 0.43 0.47 0.46 0.47 0.38 0.30 0.25 0.23 0.23 0.20 0.15 0.13 0.11 0.12 0.14 0.12 0.08 0.07 0.06 0.06 0.09 0.11 0.13 0.15 0.18 0.24 0.28 0.35 0.43 0.49 0.48 0.45 0.45 0.48 0.56 0.77 0.98 1.05 0.85 0.67 0.65